North Platte, NE

2:43 AM CDT on October 19, 2017 (GMT -0500)
North Platte Regional-Bird

Weather History for KLBF - October, 2014

Change the Weather History Date:

Friday, October 10, 2014

  Actual Average Record
Temperature  
Mean Temperature 47 °F 51 °F  
Max Temperature 59 °F 67 °F 93 °F (1910)
Min Temperature 35 °F 36 °F 19 °F (2009)
Degree Days  
Heating Degree Days 18 14  
Month to date heating degree days 117 120  
Since 1 July heating degree days 257 291  
Cooling Degree Days 0 0  
Month to date cooling degree days 0 0  
Year to date cooling degree days 744 765  
Moisture  
Dew Point 35 °F    
Average Humidity 63    
Maximum Humidity 85    
Minimum Humidity 40    
Precipitation  
Precipitation 0.00 in 0.05 in 0.53 in (2009)
Month to date precipitation 0.70 0.53  
Year to date precipitation 20.37 18.16  
Snow  
Snow 0.00 in 0.10 in 11.80 in (2009)
Month to date snowfall 0.0 0.4  
Since 1 July snowfall T 0.6  
Since 1 September snowfall T 0.6  
Snow Depth 0.00 in    
Sea Level Pressure  
Sea Level Pressure 30.23 in    
Wind  
Wind Speed 5 mph (East)    
Max Wind Speed 12 mph    
Max Gust Speed 15 mph    
Visibility 10 miles    
Events      
T = Trace of Precipitation, MM = Missing Value Source: NWS Daily Summary

Daily Weather History Graph

Daily Weather History Graph

Search for Another Location

Airport or City:

Trip Planner

Search our weather history database for the weather conditions in past years. The results will help you decide how hot, cold, wet, or windy it might be!

Date:

Astronomy

Oct. 10, 2014 Rise Set
Actual Time 7:48 AM CDT 7:09 PM CDT
Civil Twilight 7:21 AM CDT 7:37 PM CDT
Nautical Twilight 6:49 AM CDT 8:09 PM CDT
Astronomical Twilight 6:17 AM CDT 8:41 PM CDT
Moon 8:50 PM CDT (10/10) 10:13 AM CDT (10/10)
Length of Visible Light 12h 16m
Length of Day
11h 20m
Waning Gibbous, 93% of the Moon is Illuminated
Oct 10
Waning Gibbous
Oct 15
Last Quarter
Oct 23
New
Oct 30
First Quarter
Nov 6
Full

Hourly Weather History & Observations

Time (CDT) Temp. Windchill Dew Point Humidity Pressure Visibility Wind Dir Wind Speed Gust Speed Precip Events Conditions
12:53 AM 50.0 °F - 39.9 °F 68% 30.18 in 10.0 mi ENE 6.9 mph - N/A   Overcast
1:53 AM 46.9 °F - 39.0 °F 74% 30.18 in 10.0 mi ENE 5.8 mph - N/A   Partly Cloudy
2:53 AM 48.0 °F - 39.0 °F 71% 30.19 in 10.0 mi NE 6.9 mph - N/A   Overcast
3:53 AM 48.2 °F - 39.2 °F 71% 30.21 in 10.0 mi NNE 6.9 mph - N/A   Overcast
4:24 AM 48.0 °F - 36.0 °F 63% 30.21 in 10.0 mi NE 6.9 mph - N/A   Overcast
4:53 AM 46.9 °F - 36.0 °F 66% 30.20 in 10.0 mi NE 4.6 mph - N/A   Overcast
5:19 AM 46.9 °F - 35.1 °F 63% 30.22 in 10.0 mi Variable 5.8 mph - N/A   Overcast
5:53 AM 46.9 °F - 34.0 °F 61% 30.21 in 10.0 mi East 4.6 mph - N/A   Overcast
6:53 AM 46.0 °F 43.1 °F 30.9 °F 56% 30.22 in 10.0 mi East 5.8 mph - N/A   Overcast
7:53 AM 45.0 °F 41.2 °F 32.0 °F 60% 30.24 in 10.0 mi ENE 6.9 mph - N/A   Overcast
8:53 AM 45.0 °F 39.3 °F 30.9 °F 58% 30.26 in 10.0 mi East 11.5 mph - N/A   Overcast
9:53 AM 46.0 °F 41.4 °F 30.9 °F 56% 30.28 in 10.0 mi East 9.2 mph - N/A   Overcast
10:53 AM 48.0 °F - 30.9 °F 52% 30.30 in 10.0 mi ESE 6.9 mph - N/A   Overcast
11:53 AM 48.9 °F - 30.9 °F 50% 30.30 in 10.0 mi SSE 3.5 mph - N/A   Overcast
12:53 PM 51.1 °F - 32.0 °F 48% 30.28 in 10.0 mi SSE 6.9 mph - N/A   Overcast
1:53 PM 52.0 °F - 30.9 °F 45% 30.27 in 10.0 mi Variable 3.5 mph - N/A   Overcast
2:53 PM 55.9 °F - 33.1 °F 42% 30.24 in 10.0 mi Variable 3.5 mph - N/A   Mostly Cloudy
3:53 PM 57.0 °F - 34.0 °F 42% 30.22 in 10.0 mi SSW 8.1 mph - N/A   Scattered Clouds
4:53 PM 57.9 °F - 33.1 °F 39% 30.21 in 10.0 mi Variable 4.6 mph - N/A   Clear
5:53 PM 57.9 °F - 35.1 °F 42% 30.19 in 10.0 mi Calm Calm - N/A   Partly Cloudy
6:53 PM 54.0 °F - 36.0 °F 51% 30.20 in 10.0 mi SSW 3.5 mph - N/A   Clear
7:53 PM 46.0 °F 43.9 °F 37.0 °F 71% 30.21 in 10.0 mi SSE 4.6 mph - N/A   Clear
8:53 PM 42.1 °F - 35.1 °F 76% 30.23 in 10.0 mi Calm Calm - N/A   Clear
9:53 PM 39.9 °F - 36.0 °F 86% 30.24 in 10.0 mi Calm Calm - N/A   Clear
10:53 PM 37.9 °F - 33.1 °F 83% 30.23 in 10.0 mi Calm Calm - N/A   Clear
11:53 PM 37.9 °F - 34.0 °F 86% 30.22 in 10.0 mi Calm Calm - N/A   Clear